Location: Darlington Observatory
(36.4817°N, 105.8156°W)
Time: 05:42:27
(UTC-06:00)

NOSS 3-3 (A) - Visible Passes

Search period start: 25 March 2017 00:00
Search period end: 04 April 2017 00:00
Orbit: 912 x 1301 km, 63.4° (Epoch: 21 March)

Date Brightness Start Highest point End Pass type
(mag) Time Alt. Az. Time Alt. Az. Time Alt. Az.
25 Mar 6.6 01:12:30 10° NNW 01:13:49 16° NNW 01:13:49 16° NNW visible
26 Mar 6.5 00:28:06 10° NNW 00:30:23 19° N 00:30:23 19° N visible
26 Mar 6.4 23:43:54 10° N 23:46:58 19° NNE 23:46:58 19° NNE visible
27 Mar 6.7 01:33:44 10° NNW 01:34:24 13° NNW 01:34:24 13° NNW visible
27 Mar 6.4 22:59:56 10° N 23:03:35 15° NNE 23:03:35 15° NNE visible
28 Mar 6.5 00:49:07 10° NNW 00:51:00 19° NNW 00:51:00 19° NNW visible
28 Mar 6.6 22:16:50 10° NNE 22:18:23 11° NNE 22:19:58 10° NE visible
29 Mar 6.2 00:04:39 10° NNW 00:07:38 24° N 00:07:38 24° N visible
29 Mar 6.1 23:20:20 10° NNW 23:24:16 24° NNE 23:24:16 24° NNE visible
30 Mar 6.6 01:10:32 10° NW 01:11:42 16° NW 01:11:42 16° NW visible
30 Mar 6.2 22:36:12 10° N 22:40:56 19° NE 22:40:56 19° NE visible
31 Mar 6.2 00:25:49 10° NNW 00:28:23 24° NNW 00:28:23 24° NNW visible
31 Mar 6.4 21:52:25 10° N 21:55:43 13° NNE 21:57:38 12° NE visible
31 Mar 5.8 23:41:16 10° NNW 23:45:04 31° N 23:45:04 31° N visible
01 Apr 5.7 22:56:51 10° NNW 23:01:47 31° NNE 23:01:47 31° NNE visible
02 Apr 6.4 00:47:24 10° NW 00:49:13 19° NW 00:49:13 19° NW visible
02 Apr 5.8 22:12:35 10° N 22:18:21 23° NE 22:18:30 23° NE visible
03 Apr 5.9 00:02:33 10° NNW 00:05:57 30° NNW 00:05:57 30° NNW visible
03 Apr 6.2 21:28:33 10° N 21:32:59 16° NE 21:35:16 15° NE visible
03 Apr 5.4 23:17:55 10° NNW 23:22:43 42° N 23:22:43 42° N visible
